Time,TemperatureF,DewpointF,PressureIn,WindDirection,WindDirectionDegrees,WindSpeedMPH,WindSpeedGustMPH,Humidity,HourlyPrecipIn,Conditions,Clouds,dailyrainin,SoftwareType,DateUTC
2013-04-22 00:03:00,40.0,24.0,30.62,NE,47,0.0,1.0,52,0.00,,,0.00,,2013-04-22 04:03:00,
2013-04-22 00:12:00,40.0,24.0,30.62,NE,47,0.0,1.0,52,0.00,,,0.00,,2013-04-22 04:12:00,
2013-04-22 00:23:00,39.0,25.0,30.63,ENE,59,1.0,2.0,57,0.00,,,0.00,,2013-04-22 04:23:00,
2013-04-22 00:33:00,39.0,25.0,30.63,SSE,158,1.0,6.0,58,0.00,,,0.00,,2013-04-22 04:33:00,
2013-04-22 00:43:00,39.0,25.0,30.63,SSE,158,1.0,6.0,58,0.00,,,0.00,,2013-04-22 04:43:00,
2013-04-22 00:52:00,39.0,26.0,30.64,SE,135,0.0,2.0,60,0.00,,,0.00,,2013-04-22 04:52:00,
2013-04-22 01:03:00,39.0,27.0,30.63,SE,135,0.0,1.0,61,0.00,,,0.00,,2013-04-22 05:03:00,
2013-04-22 01:12:00,39.0,27.0,30.63,SE,135,0.0,1.0,61,0.00,,,0.00,,2013-04-22 05:12:00,
2013-04-22 01:22:00,38.0,27.0,30.63,SE,135,0.0,0.0,64,0.00,,,0.00,,2013-04-22 05:22:00,
2013-04-22 01:32:00,38.0,27.0,30.64,SE,134,0.0,1.0,65,0.00,,,0.00,,2013-04-22 05:32:00,
2013-04-22 01:42:00,38.0,27.0,30.64,SE,134,0.0,1.0,65,0.00,,,0.00,,2013-04-22 05:42:00,
2013-04-22 01:52:00,38.0,28.0,30.63,SE,135,0.0,1.0,68,0.00,,,0.00,,2013-04-22 05:52:00,
2013-04-22 02:02:00,37.0,28.0,30.63,SE,135,0.0,1.0,69,0.00,,,0.00,,2013-04-22 06:02:00,
2013-04-22 02:12:00,37.0,28.0,30.63,SE,135,0.0,1.0,69,0.00,,,0.00,,2013-04-22 06:12:00,
2013-04-22 02:21:00,38.0,29.0,30.64,SSE,163,0.0,5.0,70,0.00,,,0.00,,2013-04-22 06:21:00,
2013-04-22 02:32:00,38.0,29.0,30.63,ENE,73,0.0,1.0,70,0.00,,,0.00,,2013-04-22 06:32:00,
2013-04-22 02:42:00,38.0,29.0,30.63,ENE,73,0.0,1.0,70,0.00,,,0.00,,2013-04-22 06:42:00,
2013-04-22 02:52:00,37.0,28.0,30.63,ESE,109,0.0,3.0,71,0.00,,,0.00,,2013-04-22 06:52:00,
2013-04-22 03:01:00,37.0,29.0,30.64,ESE,110,0.0,2.0,72,0.00,,,0.00,,2013-04-22 07:01:00,
2013-04-22 03:12:00,37.0,29.0,30.64,ESE,110,0.0,2.0,72,0.00,,,0.00,,2013-04-22 07:12:00,
2013-04-22 03:21:00,37.0,29.0,30.64,ENE,75,0.0,1.0,72,0.00,,,0.00,,2013-04-22 07:21:00,
2013-04-22 03:32:00,36.0,28.0,30.64,ENE,75,0.0,1.0,73,0.00,,,0.00,,2013-04-22 07:32:00,
2013-04-22 03:42:00,36.0,28.0,30.64,ENE,75,0.0,1.0,73,0.00,,,0.00,,2013-04-22 07:42:00,
2013-04-22 03:52:00,36.0,29.0,30.64,ENE,75,0.0,1.0,74,0.00,,,0.00,,2013-04-22 07:52:00,
2013-04-22 04:02:00,36.0,29.0,30.64,ENE,75,0.0,1.0,75,0.00,,,0.00,,2013-04-22 08:02:00,
2013-04-22 04:11:00,36.0,29.0,30.64,ENE,75,0.0,1.0,75,0.00,,,0.00,,2013-04-22 08:11:00,
2013-04-22 04:22:00,36.0,29.0,30.64,ENE,74,0.0,2.0,76,0.00,,,0.00,,2013-04-22 08:22:00,
2013-04-22 04:32:00,36.0,29.0,30.64,ENE,69,0.0,2.0,76,0.00,,,0.00,,2013-04-22 08:32:00,
2013-04-22 04:42:00,36.0,29.0,30.64,ENE,69,0.0,2.0,76,0.00,,,0.00,,2013-04-22 08:42:00,
2013-04-22 04:53:00,36.0,29.0,30.65,ESE,104,1.0,3.0,77,0.00,,,0.00,,2013-04-22 08:53:00,
2013-04-22 05:01:00,36.0,29.0,30.65,East,90,0.0,1.0,77,0.00,,,0.00,,2013-04-22 09:01:00,
2013-04-22 05:11:00,36.0,29.0,30.65,East,90,0.0,1.0,77,0.00,,,0.00,,2013-04-22 09:11:00,
2013-04-22 05:21:00,35.0,29.0,30.65,NE,51,1.0,3.0,77,0.00,,,0.00,,2013-04-22 09:21:00,
2013-04-22 05:33:00,35.0,29.0,30.65,NNE,17,0.0,3.0,77,0.00,,,0.00,,2013-04-22 09:33:00,
2013-04-22 05:42:00,35.0,29.0,30.65,NNE,17,0.0,3.0,77,0.00,,,0.00,,2013-04-22 09:42:00,
2013-04-22 05:52:00,35.0,29.0,30.65,NNE,31,0.0,2.0,78,0.00,,,0.00,,2013-04-22 09:52:00,
2013-04-22 06:03:00,35.0,29.0,30.65,NNE,31,0.0,2.0,78,0.00,,,0.00,,2013-04-22 10:03:00,
2013-04-22 06:12:00,35.0,29.0,30.65,NNE,31,0.0,2.0,78,0.00,,,0.00,,2013-04-22 10:12:00,
2013-04-22 06:22:00,34.0,28.0,30.65,NE,34,0.0,2.0,79,0.00,,,0.00,,2013-04-22 10:22:00,
2013-04-22 06:32:00,34.0,28.0,30.66,NE,49,1.0,3.0,80,0.00,,,0.00,,2013-04-22 10:32:00,
2013-04-22 06:42:00,34.0,28.0,30.66,NE,49,1.0,3.0,80,0.00,,,0.00,,2013-04-22 10:42:00,
2013-04-22 06:53:00,34.0,28.0,30.66,NNE,29,1.0,3.0,80,0.00,,,0.00,,2013-04-22 10:53:00,
2013-04-22 07:02:00,35.0,29.0,30.66,NNE,17,0.0,3.0,79,0.00,,,0.00,,2013-04-22 11:02:00,
2013-04-22 07:12:00,36.0,29.0,30.66,NNE,18,0.0,6.0,77,0.00,,,0.00,,2013-04-22 11:12:00,
2013-04-22 07:22:00,36.0,29.0,30.66,NNE,18,0.0,6.0,77,0.00,,,0.00,,2013-04-22 11:22:00,
2013-04-22 07:32:00,36.0,29.0,30.67,North,9,1.0,5.0,76,0.00,,,0.00,,2013-04-22 11:32:00,
2013-04-22 07:42:00,36.0,29.0,30.67,North,9,1.0,5.0,76,0.00,,,0.00,,2013-04-22 11:42:00,
2013-04-22 07:52:00,37.0,29.0,30.67,NNE,14,1.0,8.0,73,0.00,,,0.00,,2013-04-22 11:52:00,
2013-04-22 08:02:00,38.0,29.0,30.67,North,5,2.0,7.0,71,0.00,,,0.00,,2013-04-22 12:02:00,
2013-04-22 08:12:00,39.0,30.0,30.67,NNE,17,1.0,7.0,69,0.00,,,0.00,,2013-04-22 12:12:00,
2013-04-22 08:21:00,39.0,30.0,30.67,NNE,17,1.0,7.0,69,0.00,,,0.00,,2013-04-22 12:21:00,
2013-04-22 08:32:00,40.0,30.0,30.66,SE,125,2.0,8.0,66,0.00,,,0.00,,2013-04-22 12:32:00,
2013-04-22 08:42:00,40.0,30.0,30.66,SE,125,2.0,8.0,66,0.00,,,0.00,,2013-04-22 12:42:00,
2013-04-22 08:52:00,41.0,29.0,30.66,SE,132,4.0,14.0,61,0.00,,,0.00,,2013-04-22 12:52:00,
2013-04-22 09:01:00,43.0,28.0,30.67,East,96,4.0,14.0,54,0.00,,,0.00,,2013-04-22 13:01:00,
2013-04-22 09:11:00,43.0,28.0,30.67,East,96,4.0,14.0,54,0.00,,,0.00,,2013-04-22 13:11:00,
2013-04-22 09:22:00,44.0,27.0,30.67,NNE,33,3.0,13.0,51,0.00,,,0.00,,2013-04-22 13:22:00,
2013-04-22 09:32:00,45.0,27.0,30.68,South,181,1.0,11.0,49,0.00,,,0.00,,2013-04-22 13:32:00,
2013-04-22 09:42:00,45.0,27.0,30.68,South,181,1.0,11.0,49,0.00,,,0.00,,2013-04-22 13:42:00,
2013-04-22 09:53:00,47.0,24.0,30.69,South,175,5.0,12.0,40,0.00,,,0.00,,2013-04-22 13:53:00,
2013-04-22 10:02:00,49.0,25.0,30.69,NE,44,4.0,10.0,39,0.00,,,0.00,,2013-04-22 14:02:00,
2013-04-22 10:11:00,50.0,25.0,30.68,South,182,4.0,10.0,38,0.00,,,0.00,,2013-04-22 14:11:00,
2013-04-22 10:21:00,50.0,25.0,30.68,South,182,4.0,10.0,38,0.00,,,0.00,,2013-04-22 14:21:00,
2013-04-22 10:33:00,50.0,24.0,30.68,ESE,122,1.0,13.0,36,0.00,,,0.00,,2013-04-22 14:33:00,
2013-04-22 10:42:00,50.0,24.0,30.68,ESE,122,1.0,13.0,36,0.00,,,0.00,,2013-04-22 14:42:00,
2013-04-22 10:52:00,51.0,23.0,30.67,East,86,6.0,13.0,33,0.00,,,0.00,,2013-04-22 14:52:00,
2013-04-22 11:02:00,51.0,24.0,30.66,ESE,104,4.0,12.0,34,0.00,,,0.00,,2013-04-22 15:02:00,
2013-04-22 11:12:00,51.0,24.0,30.66,ESE,104,4.0,12.0,34,0.00,,,0.00,,2013-04-22 15:12:00,
2013-04-22 11:22:00,53.0,26.0,30.66,ENE,69,1.0,10.0,35,0.00,,,0.00,,2013-04-22 15:22:00,
2013-04-22 11:33:00,54.0,24.0,30.66,SSE,153,4.0,13.0,31,0.00,,,0.00,,2013-04-22 15:33:00,
2013-04-22 11:43:00,54.0,24.0,30.66,SSE,153,4.0,13.0,31,0.00,,,0.00,,2013-04-22 15:43:00,
2013-04-22 11:53:00,53.0,24.0,30.65,ESE,114,3.0,11.0,32,0.00,,,0.00,,2013-04-22 15:53:00,
2013-04-22 12:03:00,54.0,22.0,30.65,SE,146,6.0,11.0,29,0.00,,,0.00,,2013-04-22 16:03:00,
2013-04-22 12:12:00,54.0,22.0,30.65,SE,146,6.0,11.0,29,0.00,,,0.00,,2013-04-22 16:12:00,
2013-04-22 12:23:00,54.0,26.0,30.65,SE,145,2.0,12.0,33,0.00,,,0.00,,2013-04-22 16:23:00,
2013-04-22 12:33:00,55.0,23.0,30.65,West,281,3.0,14.0,29,0.00,,,0.00,,2013-04-22 16:33:00,
2013-04-22 12:42:00,55.0,23.0,30.65,West,281,3.0,14.0,29,0.00,,,0.00,,2013-04-22 16:42:00,
2013-04-22 12:52:00,55.0,25.0,30.63,SE,138,3.0,12.0,31,0.00,,,0.00,,2013-04-22 16:52:00,
2013-04-22 13:02:00,57.0,24.0,30.61,SSW,196,5.0,11.0,28,0.00,,,0.00,,2013-04-22 17:02:00,
2013-04-22 13:12:00,57.0,24.0,30.61,SSW,196,5.0,11.0,28,0.00,,,0.00,,2013-04-22 17:12:00,
2013-04-22 13:22:00,58.0,27.0,30.62,East,101,2.0,7.0,30,0.00,,,0.00,,2013-04-22 17:22:00,
2013-04-22 13:32:00,57.0,24.0,30.62,SE,145,6.0,13.0,28,0.00,,,0.00,,2013-04-22 17:32:00,
2013-04-22 13:42:00,57.0,24.0,30.62,SE,145,6.0,13.0,28,0.00,,,0.00,,2013-04-22 17:42:00,
2013-04-22 13:52:00,57.0,32.0,30.61,SSW,194,1.0,9.0,38,0.00,,,0.00,,2013-04-22 17:52:00,
2013-04-22 14:01:00,56.0,30.0,30.60,South,191,2.0,10.0,37,0.00,,,0.00,,2013-04-22 18:01:00,
2013-04-22 14:12:00,56.0,30.0,30.60,South,191,2.0,10.0,37,0.00,,,0.00,,2013-04-22 18:12:00,
2013-04-22 14:22:00,57.0,29.0,30.59,SE,136,4.0,11.0,34,0.00,,,0.00,,2013-04-22 18:22:00,
2013-04-22 14:32:00,57.0,30.0,30.58,South,186,4.0,9.0,35,0.00,,,0.00,,2013-04-22 18:32:00,
2013-04-22 14:42:00,57.0,30.0,30.58,South,186,4.0,9.0,35,0.00,,,0.00,,2013-04-22 18:42:00,
2013-04-22 14:52:00,56.0,29.0,30.57,SW,224,1.0,11.0,36,0.00,,,0.00,,2013-04-22 18:52:00,
2013-04-22 15:01:00,56.0,31.0,30.58,SE,140,2.0,8.0,39,0.00,,,0.00,,2013-04-22 19:01:00,
2013-04-22 15:12:00,56.0,31.0,30.58,SE,140,2.0,8.0,39,0.00,,,0.00,,2013-04-22 19:12:00,
2013-04-22 15:22:00,56.0,29.0,30.57,SW,232,3.0,7.0,36,0.00,,,0.00,,2013-04-22 19:22:00,
2013-04-22 15:32:00,56.0,29.0,30.57,South,171,3.0,9.0,35,0.00,,,0.00,,2013-04-22 19:32:00,
2013-04-22 15:42:00,56.0,29.0,30.57,South,171,3.0,9.0,35,0.00,,,0.00,,2013-04-22 19:42:00,
2013-04-22 15:53:00,56.0,29.0,30.56,SSW,211,4.0,10.0,35,0.00,,,0.00,,2013-04-22 19:53:00,
2013-04-22 16:02:00,55.0,30.0,30.56,South,183,4.0,14.0,38,0.00,,,0.00,,2013-04-22 20:02:00,
2013-04-22 16:11:00,55.0,30.0,30.56,South,183,4.0,14.0,38,0.00,,,0.00,,2013-04-22 20:11:00,
2013-04-22 16:22:00,54.0,31.0,30.56,SSE,165,2.0,9.0,41,0.00,,,0.00,,2013-04-22 20:22:00,
2013-04-22 16:32:00,53.0,31.0,30.56,ESE,117,4.0,14.0,42,0.00,,,0.00,,2013-04-22 20:32:00,
2013-04-22 16:42:00,53.0,31.0,30.56,ESE,117,4.0,14.0,42,0.00,,,0.00,,2013-04-22 20:42:00,
2013-04-22 16:52:00,52.0,30.0,30.55,SE,128,4.0,11.0,43,0.00,,,0.00,,2013-04-22 20:52:00,
2013-04-22 17:02:00,51.0,31.0,30.55,SE,136,4.0,8.0,46,0.00,,,0.00,,2013-04-22 21:02:00,
2013-04-22 17:12:00,51.0,31.0,30.55,SE,136,4.0,8.0,46,0.00,,,0.00,,2013-04-22 21:12:00,
2013-04-22 17:21:00,50.0,29.0,30.55,ESE,116,4.0,10.0,45,0.00,,,0.00,,2013-04-22 21:21:00,
2013-04-22 17:32:00,50.0,28.0,30.55,SE,146,7.0,12.0,43,0.00,,,0.00,,2013-04-22 21:32:00,
2013-04-22 17:43:00,50.0,28.0,30.55,SE,146,7.0,12.0,43,0.00,,,0.00,,2013-04-22 21:43:00,
2013-04-22 17:53:00,49.0,27.0,30.55,East,94,4.0,11.0,43,0.00,,,0.00,,2013-04-22 21:53:00,
2013-04-22 18:03:00,49.0,28.0,30.55,SE,126,4.0,10.0,44,0.00,,,0.00,,2013-04-22 22:03:00,
2013-04-22 18:12:00,49.0,28.0,30.55,SE,126,4.0,10.0,44,0.00,,,0.00,,2013-04-22 22:12:00,
2013-04-22 18:22:00,48.0,28.0,30.55,SE,124,3.0,10.0,46,0.00,,,0.00,,2013-04-22 22:22:00,
2013-04-22 18:33:00,47.0,28.0,30.55,SSE,160,4.0,10.0,48,0.00,,,0.00,,2013-04-22 22:33:00,
2013-04-22 18:42:00,47.0,28.0,30.55,SSE,160,4.0,10.0,48,0.00,,,0.00,,2013-04-22 22:42:00,
2013-04-22 18:52:00,47.0,29.0,30.55,SSE,159,2.0,10.0,49,0.00,,,0.00,,2013-04-22 22:52:00,
2013-04-22 19:02:00,46.0,30.0,30.55,SE,131,5.0,13.0,54,0.00,,,0.00,,2013-04-22 23:02:00,
2013-04-22 19:11:00,45.0,31.0,30.55,SE,146,2.0,9.0,58,0.00,,,0.00,,2013-04-22 23:11:00,
2013-04-22 19:22:00,45.0,31.0,30.55,SE,146,2.0,9.0,58,0.00,,,0.00,,2013-04-22 23:22:00,
2013-04-22 19:33:00,44.0,32.0,30.54,South,185,2.0,8.0,63,0.00,,,0.00,,2013-04-22 23:33:00,
2013-04-22 19:42:00,44.0,32.0,30.54,South,185,2.0,8.0,63,0.00,,,0.00,,2013-04-22 23:42:00,
2013-04-22 19:52:00,44.0,33.0,30.54,SE,130,3.0,6.0,65,0.00,,,0.00,,2013-04-22 23:52:00,
2013-04-22 20:02:00,43.0,33.0,30.54,SE,134,1.0,8.0,67,0.00,,,0.00,,2013-04-23 00:02:00,
2013-04-22 20:12:00,43.0,33.0,30.54,SE,134,1.0,8.0,67,0.00,,,0.00,,2013-04-23 00:12:00,
2013-04-22 20:21:00,43.0,34.0,30.55,South,171,2.0,6.0,69,0.00,,,0.00,,2013-04-23 00:21:00,
2013-04-22 20:32:00,42.0,33.0,30.54,SE,129,2.0,9.0,71,0.00,,,0.00,,2013-04-23 00:32:00,
2013-04-22 20:42:00,42.0,33.0,30.54,SE,129,2.0,9.0,71,0.00,,,0.00,,2013-04-23 00:42:00,
2013-04-22 20:52:00,42.0,34.0,30.55,SE,140,2.0,8.0,72,0.00,,,0.00,,2013-04-23 00:52:00,
2013-04-22 21:01:00,41.0,33.0,30.55,SE,137,2.0,5.0,72,0.00,,,0.00,,2013-04-23 01:01:00,
2013-04-22 21:11:00,41.0,33.0,30.55,SE,137,2.0,5.0,72,0.00,,,0.00,,2013-04-23 01:11:00,
2013-04-22 21:21:00,41.0,33.0,30.55,SSE,152,3.0,12.0,73,0.00,,,0.00,,2013-04-23 01:21:00,
2013-04-22 21:32:00,41.0,33.0,30.55,SSE,161,2.0,12.0,73,0.00,,,0.00,,2013-04-23 01:32:00,
2013-04-22 21:42:00,41.0,33.0,30.55,SSE,161,2.0,12.0,73,0.00,,,0.00,,2013-04-23 01:42:00,
2013-04-22 21:52:00,41.0,33.0,30.54,East,90,1.0,4.0,74,0.00,,,0.00,,2013-04-23 01:52:00,
2013-04-22 22:02:00,40.0,32.0,30.54,SSE,149,1.0,6.0,74,0.00,,,0.00,,2013-04-23 02:02:00,
2013-04-22 22:12:00,40.0,32.0,30.54,SSE,149,1.0,6.0,74,0.00,,,0.00,,2013-04-23 02:12:00,
2013-04-22 22:21:00,40.0,32.0,30.53,East,87,2.0,4.0,74,0.00,,,0.00,,2013-04-23 02:21:00,
2013-04-22 22:32:00,40.0,32.0,30.53,South,171,1.0,5.0,74,0.00,,,0.00,,2013-04-23 02:32:00,
2013-04-22 22:42:00,40.0,32.0,30.53,South,171,1.0,5.0,74,0.00,,,0.00,,2013-04-23 02:42:00,
2013-04-22 22:52:00,39.0,32.0,30.54,SE,145,0.0,3.0,75,0.00,,,0.00,,2013-04-23 02:52:00,
2013-04-22 23:01:00,39.0,32.0,30.53,ESE,123,0.0,5.0,75,0.00,,,0.00,,2013-04-23 03:01:00,
2013-04-22 23:11:00,39.0,32.0,30.53,ESE,123,0.0,5.0,75,0.00,,,0.00,,2013-04-23 03:11:00,
2013-04-22 23:21:00,39.0,32.0,30.53,SE,132,0.0,4.0,76,0.00,,,0.00,,2013-04-23 03:21:00,
2013-04-22 23:33:00,38.0,31.0,30.53,SE,125,1.0,4.0,77,0.00,,,0.00,,2013-04-23 03:33:00,
2013-04-22 23:43:00,38.0,31.0,30.53,SE,125,1.0,4.0,77,0.00,,,0.00,,2013-04-23 03:43:00,
2013-04-22 23:53:00,38.0,31.0,30.53,SE,138,2.0,4.0,77,0.00,,,0.00,,2013-04-23 03:53:00,